Location: ????????
(55.7667°N, 37.4833°E)
Time: 14:26:39
(UTC+00:00)

GRACE-FO 2 - Pass Details

Date: 19 May 2025
Orbit: 452 x 472 km, 89.0° (Epoch: 21 June)

Event Time Altitude Azimuth Distance (km) Brightness Sun altitude
Exits shadow 22:40:03 22° 189° (S) 1,099 5.7 -12.7°
Maximum altitude 22:42:17 73° 271° (W) 501 4.5 -12.6°
Drops below altitude 10° 22:45:51 10° 357° (N) 1,649 8.4 -12.4°
Sets 22:47:57 0° 360° (N) 2,529 9.7 -12.3°
